Time,TemperatureF,DewpointF,PressureIn,WindDirection,WindDirectionDegrees,WindSpeedMPH,WindSpeedGustMPH,Humidity,HourlyPrecipIn,Conditions,Clouds,dailyrainin,SolarRadiationWatts/m^2,SoftwareType,DateUTC
2013-01-25 00:03:00,16.0,-2.0,-100.00,WNW,299,8.0,17.0,44,0.00,,,0.00,0.000000,,2013-01-25 05:03:00,
2013-01-25 00:12:00,15.0,-2.0,-100.00,WNW,298,7.0,18.0,47,0.00,,,0.00,0.000000,,2013-01-25 05:12:00,
2013-01-25 00:32:00,15.0,-2.0,-100.00,WNW,298,7.0,18.0,47,0.00,,,0.00,0.000000,,2013-01-25 05:32:00,
2013-01-25 00:43:00,15.0,-2.0,-100.00,WNW,298,7.0,18.0,47,0.00,,,0.00,0.000000,,2013-01-25 05:43:00,
2013-01-25 00:52:00,15.0,-2.0,-100.00,WNW,298,7.0,18.0,47,0.00,,,0.00,0.000000,,2013-01-25 05:52:00,
2013-01-25 01:02:00,15.0,-2.0,-100.00,WNW,298,7.0,18.0,47,0.00,,,0.00,0.000000,,2013-01-25 06:02:00,
2013-01-25 01:32:00,15.0,-1.0,-100.00,WNW,302,8.0,15.0,49,0.00,,,0.00,0.000000,,2013-01-25 06:32:00,
2013-01-25 01:42:00,15.0,-1.0,-100.00,WNW,302,8.0,15.0,49,0.00,,,0.00,0.000000,,2013-01-25 06:42:00,
2013-01-25 01:52:00,15.0,-1.0,-100.00,WNW,302,8.0,15.0,49,0.00,,,0.00,0.000000,,2013-01-25 06:52:00,
2013-01-25 02:02:00,15.0,-1.0,-100.00,WNW,302,8.0,15.0,49,0.00,,,0.00,0.000000,,2013-01-25 07:02:00,
2013-01-25 02:11:00,15.0,-1.0,-100.00,WNW,302,8.0,15.0,49,0.00,,,0.00,0.000000,,2013-01-25 07:11:00,
2013-01-25 02:12:00,14.0,0.0,-100.00,WNW,294,6.0,17.0,53,0.00,,,0.00,0.000000,,2013-01-25 07:12:00,
2013-01-25 02:32:00,14.0,0.0,-100.00,WNW,294,6.0,17.0,53,0.00,,,0.00,0.000000,,2013-01-25 07:32:00,
2013-01-25 02:42:00,14.0,0.0,-100.00,WNW,294,6.0,17.0,53,0.00,,,0.00,0.000000,,2013-01-25 07:42:00,
2013-01-25 02:52:00,14.0,0.0,-100.00,WNW,294,6.0,17.0,53,0.00,,,0.00,0.000000,,2013-01-25 07:52:00,
2013-01-25 03:02:00,14.0,0.0,-100.00,WNW,294,6.0,17.0,53,0.00,,,0.00,0.000000,,2013-01-25 08:02:00,
2013-01-25 03:32:00,14.0,2.0,-100.00,WNW,301,6.0,15.0,57,0.00,,,0.00,0.000000,,2013-01-25 08:32:00,
2013-01-25 03:42:00,14.0,2.0,-100.00,WNW,301,6.0,15.0,57,0.00,,,0.00,0.000000,,2013-01-25 08:42:00,
2013-01-25 03:52:00,14.0,2.0,-100.00,WNW,301,6.0,15.0,57,0.00,,,0.00,0.000000,,2013-01-25 08:52:00,
2013-01-25 04:02:00,14.0,2.0,-100.00,WNW,301,6.0,15.0,57,0.00,,,0.00,0.000000,,2013-01-25 09:02:00,
2013-01-25 04:11:00,14.0,2.0,-100.00,WNW,301,6.0,15.0,57,0.00,,,0.00,0.000000,,2013-01-25 09:11:00,
2013-01-25 04:12:00,13.0,1.0,-100.00,WNW,289,5.0,14.0,58,0.00,,,0.00,0.000000,,2013-01-25 09:12:00,
2013-01-25 04:32:00,13.0,1.0,-100.00,WNW,289,5.0,14.0,58,0.00,,,0.00,0.000000,,2013-01-25 09:32:00,
2013-01-25 04:42:00,13.0,1.0,-100.00,WNW,289,5.0,14.0,58,0.00,,,0.00,0.000000,,2013-01-25 09:42:00,
2013-01-25 04:52:00,13.0,1.0,-100.00,WNW,289,5.0,14.0,58,0.00,,,0.00,0.000000,,2013-01-25 09:52:00,
2013-01-25 05:02:00,13.0,1.0,-100.00,WNW,289,5.0,14.0,58,0.00,,,0.00,0.000000,,2013-01-25 10:02:00,
2013-01-25 05:42:00,14.0,3.0,-100.00,WNW,296,6.0,14.0,60,0.00,,,0.00,0.000000,,2013-01-25 10:42:00,
2013-01-25 05:52:00,14.0,3.0,-100.00,WNW,296,6.0,14.0,60,0.00,,,0.00,0.000000,,2013-01-25 10:52:00,
2013-01-25 06:03:00,14.0,3.0,-100.00,WNW,296,6.0,14.0,60,0.00,,,0.00,0.000000,,2013-01-25 11:03:00,
2013-01-25 06:11:00,14.0,3.0,-100.00,WNW,296,6.0,14.0,60,0.00,,,0.00,0.000000,,2013-01-25 11:11:00,
2013-01-25 06:12:00,14.0,3.0,-100.00,WNW,290,6.0,11.0,61,0.00,,,0.00,0.000000,,2013-01-25 11:12:00,
2013-01-25 06:33:00,14.0,3.0,-100.00,WNW,290,6.0,11.0,61,0.00,,,0.00,0.000000,,2013-01-25 11:33:00,
2013-01-25 06:42:00,14.0,3.0,-100.00,WNW,290,6.0,11.0,61,0.00,,,0.00,0.000000,,2013-01-25 11:42:00,
2013-01-25 06:52:00,14.0,3.0,-100.00,WNW,290,6.0,11.0,61,0.00,,,0.00,0.000000,,2013-01-25 11:52:00,
2013-01-25 07:03:00,14.0,3.0,-100.00,WNW,290,6.0,11.0,61,0.00,,,0.00,0.000000,,2013-01-25 12:03:00,
2013-01-25 07:12:00,13.0,2.0,-100.00,WNW,288,4.0,11.0,62,0.00,,,0.00,4.000000,,2013-01-25 12:12:00,
2013-01-25 07:33:00,13.0,2.0,-100.00,WNW,288,4.0,11.0,62,0.00,,,0.00,4.000000,,2013-01-25 12:33:00,
2013-01-25 07:42:00,13.0,2.0,-100.00,WNW,288,4.0,11.0,62,0.00,,,0.00,4.000000,,2013-01-25 12:42:00,
2013-01-25 07:53:00,13.0,2.0,-100.00,WNW,288,4.0,11.0,62,0.00,,,0.00,4.000000,,2013-01-25 12:53:00,
2013-01-25 08:03:00,13.0,2.0,-100.00,WNW,288,4.0,11.0,62,0.00,,,0.00,4.000000,,2013-01-25 13:03:00,
2013-01-25 08:12:00,18.0,6.0,-100.00,NW,305,5.0,11.0,58,0.00,,,-99.99,92.000000,,2013-01-25 13:12:00,
2013-01-25 08:33:00,18.0,6.0,-100.00,NW,305,5.0,11.0,58,0.00,,,-99.99,92.000000,,2013-01-25 13:33:00,
2013-01-25 08:43:00,18.0,6.0,-100.00,NW,305,5.0,11.0,58,0.00,,,-99.99,92.000000,,2013-01-25 13:43:00,
2013-01-25 08:53:00,18.0,6.0,-100.00,NW,305,5.0,11.0,58,0.00,,,-99.99,92.000000,,2013-01-25 13:53:00,
2013-01-25 09:03:00,18.0,6.0,-100.00,NW,305,5.0,11.0,58,0.00,,,-99.99,92.000000,,2013-01-25 14:03:00,
2013-01-25 09:12:00,21.0,6.0,-100.00,WNW,294,5.0,12.0,51,0.00,,,0.00,337.000000,,2013-01-25 14:12:00,
2013-01-25 09:33:00,21.0,6.0,-100.00,WNW,294,5.0,12.0,51,0.00,,,0.00,337.000000,,2013-01-25 14:33:00,
2013-01-25 09:42:00,21.0,6.0,-100.00,WNW,294,5.0,12.0,51,0.00,,,0.00,337.000000,,2013-01-25 14:42:00,
2013-01-25 09:53:00,21.0,6.0,-100.00,WNW,294,5.0,12.0,51,0.00,,,0.00,337.000000,,2013-01-25 14:53:00,
2013-01-25 10:03:00,21.0,6.0,-100.00,WNW,294,5.0,12.0,51,0.00,,,0.00,337.000000,,2013-01-25 15:03:00,
2013-01-25 10:12:00,24.0,7.0,-100.00,West,281,6.0,12.0,48,0.01,,,0.01,520.000000,,2013-01-25 15:12:00,
2013-01-25 10:33:00,24.0,7.0,-100.00,West,281,6.0,12.0,48,0.01,,,0.01,520.000000,,2013-01-25 15:33:00,
2013-01-25 10:43:00,24.0,7.0,-100.00,West,281,6.0,12.0,48,0.01,,,0.01,520.000000,,2013-01-25 15:43:00,
2013-01-25 10:53:00,24.0,7.0,-100.00,West,281,6.0,12.0,48,0.01,,,0.01,520.000000,,2013-01-25 15:53:00,
2013-01-25 11:03:00,24.0,7.0,-100.00,West,281,6.0,12.0,48,0.01,,,0.01,520.000000,,2013-01-25 16:03:00,
2013-01-25 11:12:00,26.0,9.0,-100.00,WNW,300,4.0,12.0,47,0.00,,,0.01,617.000000,,2013-01-25 16:12:00,
2013-01-25 11:43:00,26.0,9.0,-100.00,WNW,300,4.0,12.0,47,0.00,,,0.01,617.000000,,2013-01-25 16:43:00,
2013-01-25 11:53:00,26.0,9.0,-100.00,WNW,300,4.0,12.0,47,0.00,,,0.01,617.000000,,2013-01-25 16:53:00,
2013-01-25 12:03:00,26.0,9.0,-100.00,WNW,300,4.0,12.0,47,0.00,,,0.01,617.000000,,2013-01-25 17:03:00,
2013-01-25 12:12:00,26.0,7.0,-100.00,WNW,290,5.0,10.0,44,0.03,,,0.04,689.000000,,2013-01-25 17:12:00,
2013-01-25 12:43:00,26.0,7.0,-100.00,WNW,290,5.0,10.0,44,0.03,,,0.04,689.000000,,2013-01-25 17:43:00,
2013-01-25 12:53:00,26.0,7.0,-100.00,WNW,290,5.0,10.0,44,0.03,,,0.04,689.000000,,2013-01-25 17:53:00,
2013-01-25 13:03:00,26.0,7.0,-100.00,WNW,290,5.0,10.0,44,0.03,,,0.04,689.000000,,2013-01-25 18:03:00,
2013-01-25 13:12:00,25.0,6.0,-100.00,West,259,5.0,13.0,43,0.01,,,0.05,545.000000,,2013-01-25 18:12:00,
2013-01-25 13:43:00,25.0,6.0,-100.00,West,259,5.0,13.0,43,0.01,,,0.05,545.000000,,2013-01-25 18:43:00,
2013-01-25 13:53:00,25.0,6.0,-100.00,West,259,5.0,13.0,43,0.01,,,0.05,545.000000,,2013-01-25 18:53:00,
2013-01-25 14:03:00,25.0,6.0,-100.00,West,259,5.0,13.0,43,0.01,,,0.05,545.000000,,2013-01-25 19:03:00,
2013-01-25 14:12:00,25.0,4.0,-100.00,WSW,256,4.0,10.0,40,0.00,,,0.05,248.000000,,2013-01-25 19:12:00,
2013-01-25 14:42:00,25.0,4.0,-100.00,WSW,256,4.0,10.0,40,0.00,,,0.05,248.000000,,2013-01-25 19:42:00,
2013-01-25 14:53:00,25.0,4.0,-100.00,WSW,256,4.0,10.0,40,0.00,,,0.05,248.000000,,2013-01-25 19:53:00,
2013-01-25 15:03:00,25.0,4.0,-100.00,WSW,256,4.0,10.0,40,0.00,,,0.05,248.000000,,2013-01-25 20:03:00,
2013-01-25 15:12:00,27.0,2.0,-100.00,WSW,241,4.0,11.0,34,0.00,,,0.05,308.000000,,2013-01-25 20:12:00,
2013-01-25 15:43:00,27.0,2.0,-100.00,WSW,241,4.0,11.0,34,0.00,,,0.05,308.000000,,2013-01-25 20:43:00,
2013-01-25 15:53:00,27.0,2.0,-100.00,WSW,241,4.0,11.0,34,0.00,,,0.05,308.000000,,2013-01-25 20:53:00,
2013-01-25 16:02:00,27.0,2.0,-100.00,WSW,241,4.0,11.0,34,0.00,,,0.05,308.000000,,2013-01-25 21:02:00,
2013-01-25 16:12:00,24.0,0.0,-100.00,SW,230,5.0,9.0,35,0.00,,,0.05,100.000000,,2013-01-25 21:12:00,
2013-01-25 16:43:00,24.0,0.0,-100.00,SW,230,5.0,9.0,35,0.00,,,0.05,100.000000,,2013-01-25 21:43:00,
2013-01-25 16:52:00,24.0,0.0,-100.00,SW,230,5.0,9.0,35,0.00,,,0.05,100.000000,,2013-01-25 21:52:00,
2013-01-25 17:03:00,24.0,0.0,-100.00,SW,230,5.0,9.0,35,0.00,,,0.05,100.000000,,2013-01-25 22:03:00,
2013-01-25 17:12:00,23.0,0.0,-100.00,SW,222,4.0,12.0,36,0.00,,,0.05,12.000000,,2013-01-25 22:12:00,
2013-01-25 17:42:00,23.0,0.0,-100.00,SW,222,4.0,12.0,36,0.00,,,0.05,12.000000,,2013-01-25 22:42:00,
2013-01-25 17:53:00,23.0,0.0,-100.00,SW,222,4.0,12.0,36,0.00,,,0.05,12.000000,,2013-01-25 22:53:00,
2013-01-25 18:02:00,23.0,0.0,-100.00,SW,222,4.0,12.0,36,0.00,,,0.05,12.000000,,2013-01-25 23:02:00,
2013-01-25 18:12:00,23.0,1.0,-100.00,SW,223,4.0,7.0,37,0.00,,,0.05,0.000000,,2013-01-25 23:12:00,
2013-01-25 18:42:00,23.0,1.0,-100.00,SW,223,4.0,7.0,37,0.00,,,0.05,0.000000,,2013-01-25 23:42:00,
2013-01-25 18:53:00,23.0,1.0,-100.00,SW,223,4.0,7.0,37,0.00,,,0.05,0.000000,,2013-01-25 23:53:00,
2013-01-25 19:02:00,23.0,1.0,-100.00,SW,223,4.0,7.0,37,0.00,,,0.05,0.000000,,2013-01-26 00:02:00,
2013-01-25 19:12:00,24.0,3.0,-100.00,SW,231,4.0,8.0,39,0.00,,,0.05,0.000000,,2013-01-26 00:12:00,
2013-01-25 19:42:00,24.0,3.0,-100.00,SW,231,4.0,8.0,39,0.00,,,0.05,0.000000,,2013-01-26 00:42:00,
2013-01-25 19:53:00,24.0,3.0,-100.00,SW,231,4.0,8.0,39,0.00,,,0.05,0.000000,,2013-01-26 00:53:00,
2013-01-25 20:02:00,24.0,3.0,-100.00,SW,231,4.0,8.0,39,0.00,,,0.05,0.000000,,2013-01-26 01:02:00,
2013-01-25 20:12:00,23.0,2.0,-100.00,SSW,213,3.0,7.0,39,0.00,,,0.05,0.000000,,2013-01-26 01:12:00,
2013-01-25 20:32:00,23.0,2.0,-100.00,SSW,213,3.0,7.0,39,0.00,,,0.05,0.000000,,2013-01-26 01:32:00,
2013-01-25 20:42:00,23.0,2.0,-100.00,SSW,213,3.0,7.0,39,0.00,,,0.05,0.000000,,2013-01-26 01:42:00,
2013-01-25 20:52:00,23.0,2.0,-100.00,SSW,213,3.0,7.0,39,0.00,,,0.05,0.000000,,2013-01-26 01:52:00,
2013-01-25 21:02:00,23.0,2.0,-100.00,SSW,213,3.0,7.0,39,0.00,,,0.05,0.000000,,2013-01-26 02:02:00,
2013-01-25 21:12:00,23.0,3.0,-100.00,WSW,257,2.0,10.0,42,0.00,,,0.05,0.000000,,2013-01-26 02:12:00,
2013-01-25 21:42:00,23.0,3.0,-100.00,WSW,257,2.0,10.0,42,0.00,,,0.05,0.000000,,2013-01-26 02:42:00,
2013-01-25 21:52:00,23.0,3.0,-100.00,WSW,257,2.0,10.0,42,0.00,,,0.05,0.000000,,2013-01-26 02:52:00,
2013-01-25 22:02:00,23.0,3.0,-100.00,WSW,257,2.0,10.0,42,0.00,,,0.05,0.000000,,2013-01-26 03:02:00,
2013-01-25 22:12:00,22.0,5.0,-100.00,SW,217,2.0,4.0,48,0.00,,,0.05,0.000000,,2013-01-26 03:12:00,
2013-01-25 22:32:00,22.0,5.0,-100.00,SW,217,2.0,4.0,48,0.00,,,0.05,0.000000,,2013-01-26 03:32:00,
2013-01-25 22:43:00,22.0,5.0,-100.00,SW,217,2.0,4.0,48,0.00,,,0.05,0.000000,,2013-01-26 03:43:00,
2013-01-25 22:52:00,22.0,5.0,-100.00,SW,217,2.0,4.0,48,0.00,,,0.05,0.000000,,2013-01-26 03:52:00,
2013-01-25 23:02:00,22.0,5.0,-100.00,SW,217,2.0,4.0,48,0.00,,,0.05,0.000000,,2013-01-26 04:02:00,
2013-01-25 23:12:00,23.0,5.0,-100.00,WSW,250,3.0,6.0,46,0.00,,,0.05,0.000000,,2013-01-26 04:12:00,
2013-01-25 23:32:00,23.0,5.0,-100.00,WSW,250,3.0,6.0,46,0.00,,,0.05,0.000000,,2013-01-26 04:32:00,
2013-01-25 23:43:00,23.0,5.0,-100.00,WSW,250,3.0,6.0,46,0.00,,,0.05,0.000000,,2013-01-26 04:43:00,
2013-01-25 23:52:00,23.0,5.0,-100.00,WSW,250,3.0,6.0,46,0.00,,,0.05,0.000000,,2013-01-26 04:52:00,